Back to catalog

COSMOS 2251 DEB

AliveLEO
NORAD 34270·DEBRIS·🇷🇺 Russia

Launched Jun 16, 1993 from Plesetsk Cosmodrome

Loading…

Next Passes (next 24 hours)

TLE

FreshSource: Space-Track

Epoch: Sep 13, 2026, 23:12 UTC

1 34270U 93036LQ  26256.96688832  .00001665  00000-0  29987-3 0  9994
2 34270  74.0095 135.5390 0049967 220.3647 139.3810 14.66642264931298

Track COSMOS 2251 DEB in real time with AllMySat

Download on the App Store